Regional Weather Roundup
Issued by NWS Cleveland, OH

Home | Current Version | Previous Version | Text Only | Print | Product List | Glossary Off
Versions: 1 2 3 4 5 6 7 8 9 10 11 12 13 14 15 16 17 18 19 20 21 22 23 24 25 26 27 28 29 30 31 32 33 34 35 36 37 38 39 40 41 42 43 44 45 46 47 48 49 50

000
ASUS41 KCLE 271210
RWRCLE
OHIO REGIONAL WEATHER ROUNDUP
NATIONAL WEATHER SERVICE WILMINGTON, OH
800 AM EDT TUE SEP 27 2016

NOTE: "FAIR" INDICATES FEW OR NO CLOUDS BELOW 12,000 FEET WITH NO
SIGNIFICANT WEATHER AND/OR OBSTRUCTIONS TO VISIBILITY.

OHZ001>008-015>018-024>027-034-035-043-044-271300-
   NORTHWEST OHIO

CITY           SKY/WX    TMP DP  RH WIND       PRES   REMARKS
DEFIANCE       FAIR      50  40  68 S8        29.87S
FINDLAY        FAIR      50  40  68 S12       29.88F
TOLEDO EXPRESS FAIR      49  41  74 SW9       29.85S
TOLEDO EXEC    FAIR      50  42  74 SW9       29.87S
LIMA           FAIR      50  42  74 SW7       29.92S
$$

OHZ009>014-019>023-028>033-038-089-271300-
   NORTHEAST OHIO

CITY           SKY/WX    TMP DP  RH WIND       PRES   REMARKS
CLE-HOPKINS    FAIR      53  41  63 S12       29.91F
CLE-LAKEFRONT  FAIR      54  42  64 S14       29.87F
CUY CO. ARPT   CLEAR     55  43  62 S14       29.89F
LORAIN-ELYRIA  FAIR      49  41  74 SW9       29.90F
ASHTABULA      FAIR      50  46  86 S9        29.90F
AKRON-CANTON   FAIR      49  45  86 SW9       29.94F
WOOSTER        FAIR      48  45  89 SW8       29.94F
MANSFIELD      FAIR      49  43  80 S9        29.93F
YOUNGSTOWN     FAIR      49  47  93 S7        29.94R
$$

OHZ042-051>053-060>062-070>072-077>081-271300-
  SOUTHWEST OHIO

CITY           SKY/WX    TMP DP  RH WIND       PRES   REMARKS
CINC-COVINGTON FAIR      49  48  97 S6        30.00S
CINC-LUNKEN    FAIR      46  46 100 CALM      30.02R
HAMILTON       FAIR      44  42  93 CALM      30.00S
DAYTON         FAIR      50  44  80 SW10      29.97F
WRIGHT-PAT AFB FAIR      49  47  92 SE5       29.97S
DAYTON GENERAL FAIR      48  45  89 S5        29.98S
WILMINGTON     FAIR      47  46  97 S5        29.99S
$$

OHZ036-037-039>041-045>050-054>059-063>069-073>076-082>088-271300-
  CENTRAL AND SOUTHEAST OHIO

CITY           SKY/WX    TMP DP  RH WIND       PRES   REMARKS
COLUMBUS       FAIR      49  48  97 S6        29.97F
OSU AIRPORT    FAIR      50  46  86 S5        29.96F
BOLTON FIELD   CLEAR     45  45 100 SW6       29.98F
RICKENBACK AFB FAIR      48  47  99 S7        29.98F
NEWARK         FAIR      47  45  93 S5        29.98S
MARION         FAIR      48  44  86 S8        29.94S
LANCASTER      FAIR      47  45  93 S3        29.99S
ZANESVILLE     FAIR      46  45  96 S3        29.99S
NEW PHILLY     FAIR      48  47  96 CALM      29.98S
$$




USA.gov is the U.S. government's official web portal to all federal, state and local government web resources and services.